Location: Eyeline Observatory
(43.2182°N, 78.8632°W)
Time: 01:54:32
(UTC-04:00)

Envisat - Pass Details

Date: 14 October 2017
Orbit: 764 x 766 km, 98.2° (Epoch: 22 October)

Event Time Altitude Azimuth Distance (km) Brightness Sun altitude
Exits shadow 22:00:13 25° 287° (WNW) 1,511 5.0 -37.5°
Drops below altitude 10° 22:03:25 10° 323° (NW) 2,310 6.1 -38.0°
Sets 22:06:04 0° 336° (NNW) 3,240 6.9 -38.4°
